Location: Goettingen
(51.5300°N, 9.9433°E)
Time: 14:46:58
(UTC+02:00)

ISS - Pass Details

Date: 25 September 2022
Orbit: 414 x 417 km, 51.6° (Epoch: 28 September)

Event Time Altitude Azimuth Distance (km) Brightness Sun altitude
Rises 22:07:58 0° 284° (WNW) 2,365 1.1 -26.6°
Reaches altitude 10° 22:10:07 10° 278° (W) 1,499 -0.2 -26.8°
Enters shadow 22:11:13 19° 270° (W) 1,084 -1.1 -27.0°
